www.pogodaiklimat.ru

Погода и климат >> Архив погоды >> Вьетнам >> Намдинь


ПОГОДА в Намдине

  • Прогноз погоды в Намдине
  • Монитор погоды в Намдине

АРХИВ ПОГОДЫ в Намдине

Время (UTC), дата Ветер
(напр.,м/с)
 
Видим.   Явления Облачность Т
(С)
Тd
(С)
f
(%)
Тe
(С)
Тes
(С)
Комфортность P
(гПа)
Po
(гПа)
Тmin
(С)
Tmax
(С)
R
(мм)
R24
(мм)
S
(см)
00 14.06 С 2 10 км 10/10 300 м
[Cu Sc]
+30.1 +28.3 90 +51 +51 опасность
перегрева
1002.7 1002.4 +30.0
03 14.06 С 2 10 км слаб. ливневой дождь 10/10 300 м
[Cb cap]
+30.1 +27.7 87 +49 +49 опасность
перегрева
1003.8 1003.5
06 14.06 СЗ 2 20 км {ливн. осадки} 9/9 600 м
[Cu Sc]
+33.8 +27.5 70 +53 +55 опасность
перегрева
1002.2 1001.9 0.0
09 14.06 В 4 20 км 8/8 300 м
[Cu med, cong]
+33.6 +28.4 74 +55 +56 опасность
перегрева
1000.4 1000.1
12 14.06 В 1 10 км в посл. час ливневой дождь {гроза} 9/9 300 м
[Cb cap]
+27.3 +25.4 89 +40 +40 очень
душно
1001.3 1001.0 +36.5 12
15 14.06 В 2 10 км в посл. час ливневой дождь 8/8 300 м
[Cb cap]
+28.4 +26.7 91 +44 +44 опасность
перегрева
1003.3 1003.0
18 14.06 В 2 10 км {ливн. осадки} 9/9 300 м
[Cu Sc]
+29.6 +28.7 95 +51 +51 опасность
перегрева
1002.0 1001.7 1
21 14.06 штиль 0 10 км 9/9 1000 м
[Sc]
+29.4 +28.0 92 +49 +49 опасность
перегрева
1001.2 1000.9
00 15.06 ЮЗ 1 10 км 9/4
[Sc Cs]
+29.2 +26.7 86 +45 +47 опасность
перегрева
1002.5 1002.2 +27.1 1
03 15.06 ЮЗ 2 20 км 9/8 1500 м
[Sc Cs]
+34.7 +26.5 63 +52 +55 опасность
перегрева
1002.5 1002.2
06 15.06 Ю 2 20 км 9/9 300 м
[Cu Sc]
+35.9 +25.7 56 +51 +53 опасность
перегрева
1001.6 1001.3 1
09 15.06 Ю 2 20 км 8/8 1000 м
[Sc]
+35.8 +25.8 56 +51 +52 опасность
перегрева
999.6 999.3
12 15.06 ЮЗ 3 10 км 8/8
[Cu Sc]
+32.6 +26.5 70 +49 +49 опасность
перегрева
1000.0 999.7 +36.5 1
15 15.06 ЮВ 2 10 км 6/6 1000 м
[Sc]
+31.4 +27.2 78 +49 +49 опасность
перегрева
1001.7 1001.4
18 15.06 Ю 2 10 км 9/9 1000 м
[Sc]
+30.8 +27.0 80 +48 +48 опасность
перегрева
1000.6 1000.3
21 15.06 Ю 2 10 км 3/3 1000 м
[Sc]
+30.0 +26.9 84 +47 +47 опасность
перегрева
999.6 999.3
00 16.06 ЮЗ 1 20 км 8/5 1000 м
[Sc Cs]
+30.4 +27.3 84 +49 +50 опасность
перегрева
1001.4 1001.1 +29.5
03 16.06 З 1 20 км 9/9 300 м
[Cu Sc]
+33.0 +25.7 66 +48 +50 опасность
перегрева
1001.8 1001.5
06 16.06 З 1 20 км 9/6 600 м
[Cu Sc Ac lent]
+35.3 +24.9 55 +49 +53 опасность
перегрева
1001.0 1000.7
09 16.06 В 2 20 км 8/5 1000 м
[Sc Ac lent]
+36.2 +26.5 58 +53 +55 опасность
перегрева
999.2 998.9
12 16.06 Ю 2 10 км 8/4 1000 м
[Sc Ac lent]
+32.9 +26.6 70 +50 +50 опасность
перегрева
1000.7 1000.4 +36.5
15 16.06 ЮВ 2 10 км 9/9 300 м
[Cu Sc]
+31.7 +27.3 78 +50 +50 опасность
перегрева
1002.5 1002.2
18 16.06 Ю 2 10 км 8/8 1000 м
[Sc]
+30.8 +27.5 83 +50 +50 опасность
перегрева
1001.7 1001.4
21 16.06 Ю 1 10 км 8/8 300 м
[Cu Sc]
+30.2 +27.1 84 +48 +48 опасность
перегрева
1001.1 1000.8
00 17.06 В 2 10 км 8/5 1000 м
[Sc Ac lent]
+30.4 +27.0 82 +48 +49 опасность
перегрева
1002.8 1002.5 +30.2
03 17.06 ЮВ 2 10 км 10/10 300 м
[Cu Sc]
+32.1 +26.5 72 +49 +49 опасность
перегрева
1003.3 1003.0
06 17.06 В 2 20 км 9/9 300 м
[Cu Sc]
+34.7 +27.0 64 +52 +55 опасность
перегрева
1002.5 1002.2
09 17.06 В 3 20 км 8/8 600 м
[Cu Sc]
+34.6 +27.2 66 +53 +55 опасность
перегрева
1000.7 1000.4
12 17.06 ЮВ 4 10 км 6/6 600 м
[Cu med, cong]
+31.5 +26.9 77 +49 +49 опасность
перегрева
1003.3 1003.0 +35.7
15 17.06 Ю 2 10 км 3/3 1000 м
[Sc]
+30.7 +27.8 85 +50 +50 опасность
перегрева
1005.3 1005.0
18 17.06 СВ 1 10 км гроза без осадков 9/9 300 м
[Cb cap]
+28.6 +25.6 84 +42 +42 опасность
перегрева
1004.5 1004.2
21 17.06 В 1 10 км слаб. дождь 10/10 300 м
[Cu Sc]
+26.2 +25.2 94 +38 +38 очень
душно
1003.7 1003.4
00 18.06 СВ 2 10 км {дождь} 10/10
[Cu Sc]
+26.2 +25.2 94 +38 +38 очень
душно
1005.5 1005.2 +25.7 2
03 18.06 В 3 10 км {дождь} 10/10 300 м
[Cu Sc]
+28.0 +26.6 92 +43 +43 опасность
перегрева
1006.0 1005.7
06 18.06 В 3 10 км {дождь} 10/10 600 м
[Cu Sc]
+30.2 +26.8 82 +47 +47 опасность
перегрева
1004.9 1004.6 0.1
09 18.06 Ю 2 10 км 10/10 300 м
[Cb cap]
+30.2 +27.1 84 +48 +48 опасность
перегрева
1003.2 1002.9
12 18.06 ЮВ 2 10 км 8/3
[Cu med, cong Cs]
+30.2 +26.8 82 +47 +47 опасность
перегрева
1004.1 1003.8 +31.0 0.1
15 18.06 Ю 1 10 км 4/4 600 м
[Cu hum]
+29.0 +27.6 92 +47 +47 опасность
перегрева
1005.9 1005.6
18 18.06 Ю 2 10 км 9/9 300 м
[Cu Sc]
+28.8 +27.9 95 +47 +47 опасность
перегрева
1005.7 1005.4
21 18.06 штиль 0 10 км 3/3 600 м
[Cu med, cong]
+28.6 +27.7 95 +47 +47 опасность
перегрева
1004.9 1004.6
00 19.06 Ю 2 10 км 9/9 600 м
[Cu med, cong]
+28.7 +26.1 86 +43 +44 опасность
перегрева
1005.8 1005.5 +28.1
03 19.06 Ю 2 20 км 8/5 600 м
[Cu med, cong Cs]
+32.0 +26.9 74 +49 +57 опасность
перегрева
1005.9 1005.6
06 19.06 ЮЗ 3 20 км 6/6 300 м
[Cu med, cong]
+34.2 +26.7 65 +51 +58 опасность
перегрева
1004.2 1003.9
09 19.06 Ю 2 20 км 6/4 600 м
[Cu med, cong Cs]
+34.2 +25.8 62 +50 +53 опасность
перегрева
1002.4 1002.1
12 19.06 ЮВ 3 10 км 8/4
[Cb calv Cs]
+31.5 +26.3 74 +48 +48 опасность
перегрева
1003.5 1003.2 +35.4
15 19.06 ЮВ 2 10 км зарница 8/8 600 м
[Cb cap]
+30.2 +27.1 84 +48 +48 опасность
перегрева
1005.3 1005.0
18 19.06 Ю 1 10 км 4/4 1000 м
[Sc]
+29.9 +27.5 87 +48 +48 опасность
перегрева
1004.7 1004.4
21 19.06 ЮВ 2 10 км 8/8 300 м
[Cu Sc]
+29.7 +28.2 92 +50 +50 опасность
перегрева
1004.3 1004.0
00 20.06 ЮЗ 2 10 км 9/9 600 м
[Cu Sc]
+30.5 +28.7 90 +52 +53 опасность
перегрева
1005.1 1004.8 +29.5
03 20.06 ЮЗ 3 20 км 8/3 600 м
[Cu med, cong Cs]
+33.4 +27.3 70 +52 +61 опасность
перегрева
1005.4 1005.1
06 20.06 В 2 20 км 8/8 600 м
[Cu med, cong Ci fib]
+35.8 +27.3 62 +55 +59 опасность
перегрева
1003.7 1003.4
09 20.06 Ю 2 20 км 4/4 600 м
[Cu med, cong]
+35.6 +28.3 66 +57 +61 опасность
перегрева
1002.3 1002.0
12 20.06 ЮВ 3 10 км 8/1 600 м
[Sc Cs]
+32.6 +27.1 73 +51 +51 опасность
перегрева
1002.4 1002.1 +36.6
15 20.06 Ю 2 10 км ясно +31.6 +27.4 78 +50 +50 опасность
перегрева
1004.0 1003.7
18 20.06 Ю 2 10 км 8/0
[Cs]
+30.8 +28.0 85 +51 +51 опасность
перегрева
1003.3 1003.0

 

Местоположение метеостанции Намдинь (Вьетнам): широта 20.43 долгота 106.15 высота над уровнем моря 3 м.

В архиве по умолчанию представлена погода в Намдине за последнюю неделю. Архивные данные за месяц целиком и за предыдущие месяцы, начиная с января 2011 года, Вы можете получить, выбрав интересующий диапазон дат из раскрывающегося списка и нажав кнопку "Ввод!".


*Определитесь, кто Вы:
робот инопланетянин человек

Внимание! Время в таблицах - всемирное. Для получения местного времени необходимо прибавить поправку, которая равна 7 ч.

Смотрите также архив погоды в соседних городах и на ближайших метеорологических станциях:

Погода в Пхульене (Вьетнам) (65 км)
Погода в Хайфоне (Вьетнам) (72 км)
Погода в Ханое (Вьетнам) (76 км)
Погода в Тханьхоа (Вьетнам) (85 км)
Погода на Бач Лонг Ви (Вьетнам) (166 км)
Погода в Лангсоне (Вьетнам) (168 км)
Погода в Баккане (Вьетнам) (194 км)
Погода во Вьенгсае (Лаос) (200 км)
Погода в Вине (Вьетнам) (202 км)
Погода в Самныа (Лаос) (217 км)

Пояснения к столбцам:

Ветер - указаны скорость ветра в м/с - средняя за 10 мин, порывы в срок и между сроками (в фигурных скобках) и направление, откуда дует ветер: С - северный, СВ - северо-восточный, В - восточный, ЮВ - юго-восточный, Ю - южный, ЮЗ - юго-западный, З - западный, СЗ - северо-западный.
Видимость - горизонтальная дальность видимости в метрах или километрах. При видимости от 1 до 10 км при отсутствии осадков обычно наблюдается дымка, при ухудшении видимости до 1 км и менее - туман. В сухую погоду видимость может ухудшаться дымом, пылью или мглою.
Явления - указаны атмосферные явления, наблюдавшиеся в срок или в последний час перед сроком; фигурными скобками обозначены явления, наблюдавшиеся между сроками (за 1-3 часа до срока); квадратными скобками обозначены град или гололедные отложения с указанием их диаметра в мм.
Облачность - указаны через наклонную черту общая и нижняя облачность в баллах и высота нижней границы облаков в метрах; квадратными скобками обозначены формы облаков: Ci - перистые, Cs - перисто-слоистые, Cc - перисто-кучевые, Ac - высококучевые, As - высокослоистые, Sc - слоисто-кучевые, Ns - слоисто-дождевые, Cu - кучевые, Cb - кучево-дождевые. Подробнее классификацию облаков см. в Атласе облаков (PDF).
T - Температура воздуха - температура, измеренная на высоте 2 м над землей.
Td - Температура точки росы - температура, при понижении до которой содержащийся в воздухе водяной пар достигнет насыщения.
f - Относительная влажность воздуха - влажноcть воздуха, измеренная на высоте 2 м над землей.
Te - Эффективная температура - температура, которую ощущает одетый по сезону человек в тени. Характеристика душности погоды. При расчете учитывается влияние влажности воздуха и скорости ветра на теплоощущения человека.
Tes - Эффективная температура на солнце - температура, которую ощущает человек, с поправкой на солнечный нагрев. Характеристика знойности погоды. Зависит от высоты солнца над горизонтом, облачности и скорости ветра. Ночью, в пасмурную погоду, а также при ветре 12 м/с и более поправка равна нулю.
P - Атмосферное давление - приведенное к уровню моря атмосферное давление.
Po - Атмосферное давление - измеренное на уровне метеостанции атмосферное давление.
Tmin - Минимальная температура - минимум температуры воздуха на высоте 2 м над землей.
Tmax - Максимальная температура - максимум температуры воздуха на высоте 2 м над землей.
R - Количество осадков - Количество выпавших осадков за период времени, мм. При наведении курсора мыши на число - период времени, за который выпало указанное количество осадков.
R24 - Количество осадков - Количество выпавших осадков за 24 часа, мм.
S - Снежный покров - Высота снежного покрова, см. При наведении курсора мыши на число - состояние снежного покрова и степень покрытия местности в баллах.